Simultaneous Nadir Overpasses (SNOs) Predictions

Prediction of SNOs between GOES-15 and METOP-B Satellite Orbit:

Table of predicted SNOs for the next 14.0 days since TLE Epoch: 7/13/2024
Index Date Time (GOES-15) GOES-15 Lat,Lon METOP-B Lat,Lon Distance(km) Time Diff (sec)
1 07/13/2024 17:01:38 0.12, 61.18 0.82, 64.40 366.33 80
2 07/15/2024 05:23:13 -0.08, 61.13 0.20, 59.81 149.31 80
3 07/16/2024 04:59:56 -0.11, 61.13 -0.94, 64.78 416.71 80
4 07/17/2024 17:21:39 0.06, 61.20 -0.19, 60.18 116.55 80
5 07/18/2024 16:58:22 0.09, 61.21 0.96, 65.15 449.27 80
6 07/20/2024 05:19:58 -0.05, 61.16 0.05, 60.56 67.58 80
7 07/21/2024 04:56:40 -0.09, 61.17 -1.04, 65.54 497.57 80
8 07/22/2024 17:18:23 0.04, 61.25 -0.01, 60.93 36.95 80
9 07/25/2024 05:14:01 -0.04, 61.22 -0.08, 61.32 11.63 80
